• In Austria
  • List of Countries
  • For 7 days
  • Water Temperature
  • Satellite Maps
  • Weather Map
  • News
  • Weather Widgets
  • user-avatar
    Login

    Hourly Weather Chinsali

    Today, 22 June, Friday

    Time Temperature Precipitation Wind Pressure Humidity
    00:00 +16°C° 0 mm 3 mps 649 mmHg 77%
    01:00 +16°C° 0 mm 2 mps 649 mmHg 80%
    02:00 +15°C° 0 mm 2 mps 649 mmHg 84%
    03:00 +15°C° 0 mm 2 mps 649 mmHg 86%
    04:00 +14°C° 0 mm 2 mps 649 mmHg 88%
    05:00 +14°C° 0 mm 2 mps 649 mmHg 90%
    06:00 +16°C° 0 mm 3 mps 649 mmHg 83%
    07:00 +17°C° 0 mm 3 mps 650 mmHg 77%
    08:00 +18°C° 0 mm 3 mps 650 mmHg 71%
    09:00 +20°C° 0 mm 4 mps 651 mmHg 63%
    10:00 +22°C° 0 mm 4 mps 651 mmHg 55%
    11:00 +25°C° 0 mm 4 mps 651 mmHg 48%
    12:00 +26°C° 0 mm 4 mps 651 mmHg 45%
    13:00 +27°C° 0 mm 4 mps 650 mmHg 43%
    14:00 +27°C° 0 mm 3 mps 650 mmHg 41%
    15:00 +26°C° 0 mm 3 mps 650 mmHg 44%
    16:00 +25°C° 0 mm 3 mps 649 mmHg 48%
    17:00 +24°C° 0 mm 2 mps 649 mmHg 51%
    18:00 +23°C° 0 mm 2 mps 649 mmHg 56%
    19:00 +20°C° 0 mm 2 mps 648 mmHg 62%
    20:00 +18°C° 0 mm 2 mps 648 mmHg 67%
    21:00 +17°C° 0 mm 2 mps 649 mmHg 69%
    22:00 +17°C° 0 mm 2 mps 649 mmHg 71%
    23:00 +16°C° 0 mm 2 mps 649 mmHg 73%

    Tomorrow, 23 June, Saturday

    Time Temperature Precipitation Wind Pressure Humidity
    00:00 +15°C° 0 mm 2 mps 649 mmHg 76%
    01:00 +15°C° 0 mm 2 mps 648 mmHg 80%
    02:00 +14°C° 0 mm 2 mps 648 mmHg 83%
    03:00 +14°C° 0 mm 2 mps 648 mmHg 85%
    04:00 +13°C° 0 mm 2 mps 648 mmHg 86%
    05:00 +13°C° 0 mm 2 mps 648 mmHg 88%
    06:00 +15°C° 0 mm 2 mps 649 mmHg 81%
    07:00 +16°C° 0 mm 3 mps 649 mmHg 74%
    08:00 +18°C° 0 mm 3 mps 650 mmHg 66%
    09:00 +20°C° 0 mm 3 mps 650 mmHg 60%
    10:00 +22°C° 0 mm 4 mps 651 mmHg 53%
    11:00 +25°C° 0 mm 4 mps 651 mmHg 46%
    12:00 +26°C° 0 mm 3 mps 650 mmHg 44%
    13:00 +26°C° 0 mm 3 mps 650 mmHg 41%
    14:00 +27°C° 0 mm 3 mps 649 mmHg 39%
    15:00 +26°C° 0 mm 3 mps 648 mmHg 43%
    16:00 +25°C° 0 mm 2 mps 648 mmHg 46%
    17:00 +24°C° 0 mm 2 mps 647 mmHg 50%
    18:00 +21°C° 0 mm 2 mps 648 mmHg 55%
    19:00 +19°C° 0 mm 2 mps 648 mmHg 60%
    20:00 +17°C° 0 mm 2 mps 648 mmHg 65%
    21:00 +17°C° 0 mm 2 mps 648 mmHg 67%
    22:00 +17°C° 0 mm 2 mps 648 mmHg 69%
    23:00 +16°C° 0 mm 2 mps 648 mmHg 71%

    Day after tomorrow, 24 June, Sunday

    Time Temperature Precipitation Wind Pressure Humidity
    00:00 +15°C° 0 mm 2 mps 648 mmHg 75%
    01:00 +14°C° 0 mm 2 mps 647 mmHg 79%
    02:00 +14°C° 0 mm 1 mps 647 mmHg 82%
    03:00 +13°C° 0 mm 1 mps 647 mmHg 83%
    04:00 +13°C° 0 mm 1 mps 647 mmHg 84%
    05:00 +12°C° 0 mm 1 mps 647 mmHg 85%
    06:00 +14°C° 0 mm 2 mps 648 mmHg 79%
    07:00 +16°C° 0 mm 2 mps 649 mmHg 73%
    08:00 +17°C° 0 mm 3 mps 649 mmHg 66%
    09:00 +20°C° 0 mm 3 mps 650 mmHg 59%
    10:00 +22°C° 0 mm 3 mps 650 mmHg 51%
    11:00 +25°C° 0 mm 3 mps 651 mmHg 43%
    12:00 +26°C° 0 mm 3 mps 650 mmHg 41%
    13:00 +26°C° 0 mm 3 mps 649 mmHg 40%
    14:00 +27°C° 0 mm 3 mps 649 mmHg 38%
    15:00 +26°C° 0 mm 3 mps 648 mmHg 42%
    16:00 +25°C° 0 mm 2 mps 648 mmHg 46%
    17:00 +24°C° 0 mm 2 mps 648 mmHg 50%
    18:00 +21°C° 0 mm 2 mps 648 mmHg 53%
    19:00 +20°C° 0 mm 2 mps 648 mmHg 56%
    20:00 +18°C° 0 mm 2 mps 648 mmHg 59%
    21:00 +18°C° 0 mm 3 mps 648 mmHg 60%
    22:00 +17°C° 0 mm 3 mps 648 mmHg 62%
    23:00 +17°C° 0 mm 3 mps 649 mmHg 63%

    25 June, Monday

    Time Temperature Precipitation Wind Pressure Humidity
    00:00 +16°C° 0 mm 2 mps 648 mmHg 66%
    01:00 +15°C° 0 mm 2 mps 647 mmHg 69%
    02:00 +14°C° 0 mm 2 mps 647 mmHg 72%
    03:00 +14°C° 0 mm 2 mps 647 mmHg 74%
    04:00 +13°C° 0 mm 2 mps 647 mmHg 76%
    05:00 +13°C° 0 mm 2 mps 647 mmHg 78%
    06:00 +15°C° 0 mm 2 mps 648 mmHg 73%
    07:00 +16°C° 0 mm 3 mps 649 mmHg 69%
    08:00 +18°C° 0 mm 3 mps 650 mmHg 64%
    09:00 +20°C° 0 mm 3 mps 650 mmHg 56%
    10:00 +22°C° 0 mm 3 mps 650 mmHg 49%
    11:00 +25°C° 0 mm 3 mps 650 mmHg 42%
    12:00 +26°C° 0 mm 3 mps 650 mmHg 40%
    13:00 +26°C° 0 mm 3 mps 649 mmHg 37%
    14:00 +27°C° 0 mm 3 mps 648 mmHg 35%
    15:00 +26°C° 0 mm 3 mps 648 mmHg 39%
    16:00 +25°C° 0 mm 2 mps 648 mmHg 43%
    17:00 +24°C° 0 mm 2 mps 648 mmHg 47%
    18:00 +21°C° 0 mm 2 mps 648 mmHg 50%
    19:00 +20°C° 0 mm 2 mps 648 mmHg 53%
    20:00 +18°C° 0 mm 2 mps 648 mmHg 57%
    21:00 +18°C° 0 mm 2 mps 648 mmHg 58%
    22:00 +17°C° 0 mm 3 mps 648 mmHg 59%
    23:00 +17°C° 0 mm 3 mps 648 mmHg 61%

    26 June, Tuesday

    Time Temperature Precipitation Wind Pressure Humidity
    00:00 +16°C° 0 mm 3 mps 648 mmHg 62%
    01:00 +14°C° 0 mm 3 mps 648 mmHg 64%
    02:00 +14°C° 0 mm 3 mps 647 mmHg 66%
    03:00 +13°C° 0 mm 3 mps 647 mmHg 68%
    04:00 +13°C° 0 mm 3 mps 647 mmHg 70%
    05:00 +13°C° 0 mm 3 mps 648 mmHg 72%
    06:00 +14°C° 0 mm 3 mps 648 mmHg 69%
    07:00 +16°C° 0 mm 3 mps 649 mmHg 66%
    08:00 +17°C° 0 mm 4 mps 650 mmHg 63%
    09:00 +19°C° 0 mm 4 mps 650 mmHg 57%
    10:00 +21°C° 0 mm 4 mps 650 mmHg 51%
    11:00 +25°C° 0 mm 4 mps 650 mmHg 45%
    12:00 +25°C° 0 mm 3 mps 650 mmHg 42%
    13:00 +26°C° 0 mm 3 mps 649 mmHg 39%
    14:00 +27°C° 0 mm 3 mps 649 mmHg 37%
    15:00 +26°C° 0 mm 3 mps 648 mmHg 40%
    16:00 +25°C° 0 mm 2 mps 648 mmHg 43%
    17:00 +24°C° 0 mm 2 mps 648 mmHg 47%
    18:00 +23°C° 0 mm 2 mps 648 mmHg 50%
    19:00 +20°C° 0 mm 2 mps 648 mmHg 53%
    20:00 +19°C° 0 mm 3 mps 649 mmHg 56%
    21:00 +18°C° 0 mm 3 mps 649 mmHg 59%
    22:00 +17°C° 0 mm 3 mps 648 mmHg 63%
    23:00 +16°C° 0 mm 3 mps 648 mmHg 67%

    27 June, Wednesday

    Time Temperature Precipitation Wind Pressure Humidity
    00:00 +16°C° 0 mm 2 mps 648 mmHg 71%
    01:00 +15°C° 0 mm 2 mps 647 mmHg 75%
    02:00 +14°C° 0 mm 2 mps 647 mmHg 79%
    03:00 +14°C° 0 mm 2 mps 647 mmHg 82%
    04:00 +13°C° 0 mm 2 mps 647 mmHg 84%
    05:00 +13°C° 0 mm 2 mps 647 mmHg 87%
    06:00 +14°C° 0 mm 2 mps 648 mmHg 81%
    07:00 +16°C° 0 mm 3 mps 649 mmHg 74%
    08:00 +17°C° 0 mm 3 mps 650 mmHg 68%
    09:00 +20°C° 0 mm 3 mps 650 mmHg 60%
    10:00 +22°C° 0 mm 3 mps 650 mmHg 51%
    11:00 +25°C° 0 mm 3 mps 650 mmHg 43%
    12:00 +25°C° 0 mm 3 mps 650 mmHg 42%
    13:00 +25°C° 0 mm 3 mps 649 mmHg 41%
    14:00 +26°C° 0 mm 3 mps 648 mmHg 40%
    15:00 +25°C° 0 mm 3 mps 648 mmHg 42%
    16:00 +24°C° 0 mm 2 mps 648 mmHg 45%
    17:00 +23°C° 0 mm 2 mps 648 mmHg 48%
    18:00 +21°C° 0 mm 2 mps 648 mmHg 53%
    19:00 +19°C° 0 mm 2 mps 648 mmHg 57%
    20:00 +17°C° 0 mm 2 mps 648 mmHg 62%
    21:00 +17°C° 0 mm 2 mps 648 mmHg 62%
    22:00 +16°C° 0 mm 2 mps 647 mmHg 63%
    23:00 +16°C° 0 mm 2 mps 647 mmHg 63%
    Show more